Time,TemperatureF,DewpointF,PressureIn,WindDirection,WindDirectionDegrees,WindSpeedMPH,WindSpeedGustMPH,Humidity,HourlyPrecipIn,Conditions,Clouds,dailyrainin,SoftwareType,DateUTC
2013-02-08 00:00:00,54.0,42.5,29.78,North,0,0.0,0.0,65,0.09,,,1.56,WUHU216HW,2013-02-08 05:00:00,
2013-02-08 00:01:00,54.0,42.5,29.78,North,0,0.0,0.0,65,0.10,,,0.00,WUHU216HW,2013-02-08 05:01:00,
2013-02-08 00:02:00,54.0,42.5,29.78,North,0,0.0,0.0,65,0.11,,,0.01,WUHU216HW,2013-02-08 05:02:00,
2013-02-08 00:07:00,54.0,42.5,29.77,North,0,0.0,0.0,65,0.17,,,0.06,WUHU216HW,2013-02-08 05:07:00,
2013-02-08 00:13:00,54.2,42.7,29.76,North,0,0.0,0.0,65,0.23,,,0.12,WUHU216HW,2013-02-08 05:13:00,
2013-02-08 00:18:00,54.2,42.7,29.75,North,0,0.0,0.0,65,0.28,,,0.16,WUHU216HW,2013-02-08 05:18:00,
2013-02-08 00:23:00,54.0,42.5,29.75,North,0,0.0,0.0,65,0.31,,,0.21,WUHU216HW,2013-02-08 05:23:00,
2013-02-08 00:28:00,54.0,42.5,29.74,North,0,0.0,0.0,65,0.33,,,0.24,WUHU216HW,2013-02-08 05:28:00,
2013-02-08 00:33:00,54.0,42.5,29.73,North,0,0.0,0.0,65,0.35,,,0.28,WUHU216HW,2013-02-08 05:33:00,
2013-02-08 00:38:00,54.0,42.5,29.73,North,0,0.0,0.0,65,0.39,,,0.33,WUHU216HW,2013-02-08 05:38:00,
2013-02-08 00:43:00,54.0,42.5,29.72,North,0,0.0,0.0,65,0.42,,,0.36,WUHU216HW,2013-02-08 05:43:00,
2013-02-08 00:48:00,54.0,42.5,29.71,North,0,0.0,0.0,65,0.46,,,0.39,WUHU216HW,2013-02-08 05:48:00,
2013-02-08 00:53:00,54.0,42.5,29.71,North,0,0.0,0.0,65,0.47,,,0.42,WUHU216HW,2013-02-08 05:53:00,
2013-02-08 00:58:00,54.0,42.5,29.71,North,0,0.0,0.0,65,0.46,,,0.45,WUHU216HW,2013-02-08 05:58:00,
2013-02-08 01:03:00,54.0,42.5,29.72,North,0,0.0,0.0,65,0.45,,,0.47,WUHU216HW,2013-02-08 06:03:00,
2013-02-08 01:08:00,54.0,42.5,29.70,North,0,0.0,0.0,65,0.39,,,0.50,WUHU216HW,2013-02-08 06:08:00,
2013-02-08 01:13:00,54.0,42.5,29.70,North,0,0.0,0.0,65,0.40,,,0.56,WUHU216HW,2013-02-08 06:13:00,
2013-02-08 01:24:00,54.0,42.5,29.67,North,0,0.0,0.0,65,0.39,,,0.59,WUHU216HW,2013-02-08 06:24:00,
2013-02-08 01:29:00,53.8,42.3,29.67,North,0,0.0,0.0,65,0.35,,,0.61,WUHU216HW,2013-02-08 06:29:00,
2013-02-08 01:34:00,53.8,42.3,29.67,North,0,0.0,0.0,65,0.31,,,0.63,WUHU216HW,2013-02-08 06:34:00,
2013-02-08 01:40:00,53.8,42.3,29.67,North,0,0.0,0.0,65,0.30,,,0.64,WUHU216HW,2013-02-08 06:40:00,
2013-02-08 01:46:00,53.8,42.3,29.66,North,0,0.0,0.0,65,0.25,,,0.66,WUHU216HW,2013-02-08 06:46:00,
2013-02-08 01:51:00,53.8,42.3,29.64,North,0,0.0,0.0,65,0.24,,,0.67,WUHU216HW,2013-02-08 06:51:00,
2013-02-08 01:56:00,53.6,42.1,29.64,North,0,0.0,0.0,65,0.23,,,0.69,WUHU216HW,2013-02-08 06:56:00,
2013-02-08 02:01:00,53.6,42.1,29.62,North,0,0.0,0.0,65,0.23,,,0.70,WUHU216HW,2013-02-08 07:01:00,
2013-02-08 02:06:00,53.8,42.3,29.62,North,0,0.0,0.0,65,0.18,,,0.70,WUHU216HW,2013-02-08 07:06:00,
2013-02-08 02:11:00,53.8,42.3,29.62,North,0,0.0,0.0,65,0.16,,,0.71,WUHU216HW,2013-02-08 07:11:00,
2013-02-08 02:16:00,54.0,42.5,29.61,North,0,0.0,0.0,65,0.15,,,0.72,WUHU216HW,2013-02-08 07:16:00,
2013-02-08 02:21:00,54.4,42.9,29.61,North,0,0.0,0.0,65,0.20,,,0.80,WUHU216HW,2013-02-08 07:21:00,
2013-02-08 02:26:00,54.5,42.6,29.60,North,0,0.0,0.0,64,0.23,,,0.84,WUHU216HW,2013-02-08 07:26:00,
2013-02-08 02:31:00,54.5,42.6,29.60,North,0,0.0,0.0,64,0.25,,,0.88,WUHU216HW,2013-02-08 07:31:00,
2013-02-08 02:36:00,54.5,42.6,29.58,North,0,0.0,0.0,64,0.24,,,0.88,WUHU216HW,2013-02-08 07:36:00,
2013-02-08 02:41:00,54.7,42.8,29.58,North,0,0.0,0.0,64,0.22,,,0.88,WUHU216HW,2013-02-08 07:41:00,
2013-02-08 02:46:00,55.3,43.3,29.57,North,0,0.0,0.0,64,0.21,,,0.88,WUHU216HW,2013-02-08 07:46:00,
2013-02-08 02:51:00,55.4,43.4,29.57,North,0,0.0,0.0,64,0.20,,,0.88,WUHU216HW,2013-02-08 07:51:00,
2013-02-08 02:56:00,55.4,43.4,29.57,North,0,0.0,0.0,64,0.19,,,0.88,WUHU216HW,2013-02-08 07:56:00,
2013-02-08 03:02:00,55.8,43.7,29.59,North,0,0.0,0.0,64,0.18,,,0.88,WUHU216HW,2013-02-08 08:02:00,
2013-02-08 03:07:00,57.2,44.7,29.57,North,0,0.0,0.0,63,0.17,,,0.88,WUHU216HW,2013-02-08 08:07:00,
2013-02-08 03:12:00,58.0,45.5,29.57,North,0,0.0,0.0,63,0.17,,,0.88,WUHU216HW,2013-02-08 08:12:00,
2013-02-08 03:17:00,58.1,45.6,29.57,North,0,0.0,0.0,63,0.08,,,0.88,WUHU216HW,2013-02-08 08:17:00,
2013-02-08 03:22:00,58.0,45.0,29.56,North,0,0.0,0.0,62,0.04,,,0.88,WUHU216HW,2013-02-08 08:22:00,
2013-02-08 03:27:00,58.0,45.5,29.56,North,0,0.0,0.0,63,0.00,,,0.88,WUHU216HW,2013-02-08 08:27:00,
2013-02-08 03:32:00,57.6,45.1,29.56,North,0,0.0,0.0,63,0.00,,,0.88,WUHU216HW,2013-02-08 08:32:00,
2013-02-08 03:37:00,56.3,43.9,29.57,North,0,0.0,0.0,63,0.00,,,0.88,WUHU216HW,2013-02-08 08:37:00,
2013-02-08 03:42:00,55.8,43.4,29.57,North,0,0.0,0.0,63,0.00,,,0.88,WUHU216HW,2013-02-08 08:42:00,
2013-02-08 03:47:00,55.3,42.9,29.57,North,0,0.0,0.0,63,0.00,,,0.88,WUHU216HW,2013-02-08 08:47:00,
2013-02-08 03:52:00,54.9,42.5,29.57,North,0,0.0,0.0,63,0.00,,,0.88,WUHU216HW,2013-02-08 08:52:00,
2013-02-08 03:57:00,54.5,42.2,29.57,North,0,0.0,0.0,63,0.00,,,0.88,WUHU216HW,2013-02-08 08:57:00,
2013-02-08 04:02:00,54.4,42.4,29.57,North,0,0.0,0.0,64,0.00,,,0.88,WUHU216HW,2013-02-08 09:02:00,
2013-02-08 04:07:00,54.2,42.2,29.58,North,0,0.0,0.0,64,0.00,,,0.88,WUHU216HW,2013-02-08 09:07:00,
2013-02-08 04:12:00,53.8,41.9,29.58,North,0,0.0,0.0,64,0.00,,,0.88,WUHU216HW,2013-02-08 09:12:00,
2013-02-08 04:17:00,53.6,41.8,29.58,North,0,0.0,0.0,64,0.00,,,0.88,WUHU216HW,2013-02-08 09:17:00,
2013-02-08 04:22:00,53.5,41.6,29.58,North,0,0.0,0.0,64,0.00,,,0.88,WUHU216HW,2013-02-08 09:22:00,
2013-02-08 04:27:00,53.3,41.4,29.58,North,0,0.0,0.0,64,0.00,,,0.88,WUHU216HW,2013-02-08 09:27:00,
2013-02-08 04:32:00,53.1,41.2,29.59,North,0,0.0,0.0,64,0.00,,,0.88,WUHU216HW,2013-02-08 09:32:00,
2013-02-08 04:37:00,52.9,41.1,29.59,North,0,0.0,0.0,64,0.00,,,0.88,WUHU216HW,2013-02-08 09:37:00,
2013-02-08 04:42:00,52.9,41.1,29.60,North,0,0.0,0.0,64,0.00,,,0.88,WUHU216HW,2013-02-08 09:42:00,
2013-02-08 04:47:00,52.9,41.1,29.60,North,0,0.0,0.0,64,0.00,,,0.88,WUHU216HW,2013-02-08 09:47:00,
2013-02-08 04:52:00,52.7,40.9,29.60,North,0,0.0,0.0,64,0.00,,,0.88,WUHU216HW,2013-02-08 09:52:00,
2013-02-08 04:58:00,52.7,40.9,29.61,North,0,0.0,0.0,64,0.00,,,0.88,WUHU216HW,2013-02-08 09:58:00,
2013-02-08 05:03:00,52.6,40.7,29.61,North,0,0.0,0.0,64,0.00,,,0.88,WUHU216HW,2013-02-08 10:03:00,
2013-02-08 05:08:00,52.4,40.5,29.62,North,0,0.0,0.0,64,0.00,,,0.88,WUHU216HW,2013-02-08 10:08:00,
2013-02-08 05:13:00,52.2,40.3,29.62,North,0,0.0,0.0,64,0.00,,,0.88,WUHU216HW,2013-02-08 10:13:00,
2013-02-08 05:18:00,52.0,40.1,29.62,North,0,0.0,0.0,64,0.00,,,0.88,WUHU216HW,2013-02-08 10:18:00,
2013-02-08 05:23:00,51.8,40.0,29.63,North,0,0.0,0.0,64,0.00,,,0.88,WUHU216HW,2013-02-08 10:23:00,
2013-02-08 05:28:00,51.5,39.7,29.64,North,0,0.0,0.0,64,0.00,,,0.88,WUHU216HW,2013-02-08 10:28:00,
2013-02-08 05:33:00,51.1,38.9,29.64,North,0,0.0,0.0,63,0.00,,,0.88,WUHU216HW,2013-02-08 10:33:00,
2013-02-08 05:38:00,50.9,38.7,29.64,North,0,0.0,0.0,63,0.00,,,0.88,WUHU216HW,2013-02-08 10:38:00,
2013-02-08 05:43:00,50.8,38.6,29.65,North,0,0.0,0.0,63,0.00,,,0.88,WUHU216HW,2013-02-08 10:43:00,
2013-02-08 05:48:00,50.6,38.4,29.66,North,0,0.0,0.0,63,0.00,,,0.88,WUHU216HW,2013-02-08 10:48:00,
2013-02-08 05:53:00,50.4,38.3,29.67,North,0,0.0,0.0,63,0.00,,,0.88,WUHU216HW,2013-02-08 10:53:00,
2013-02-08 05:58:00,50.2,38.1,29.67,North,0,0.0,0.0,63,0.00,,,0.88,WUHU216HW,2013-02-08 10:58:00,
2013-02-08 06:03:00,50.2,38.1,29.67,North,0,0.0,0.0,63,0.00,,,0.88,WUHU216HW,2013-02-08 11:03:00,
2013-02-08 06:08:00,50.0,37.9,29.68,North,0,0.0,0.0,63,0.00,,,0.88,WUHU216HW,2013-02-08 11:08:00,
2013-02-08 06:13:00,49.9,37.7,29.68,North,0,0.0,0.0,63,0.00,,,0.88,WUHU216HW,2013-02-08 11:13:00,
2013-02-08 06:18:00,49.7,37.5,29.69,North,0,0.0,0.0,63,0.00,,,0.88,WUHU216HW,2013-02-08 11:18:00,
2013-02-08 06:23:00,49.5,37.5,29.69,North,0,0.0,0.0,63,0.00,,,0.88,WUHU216HW,2013-02-08 11:23:00,
2013-02-08 06:28:00,49.3,37.3,29.69,North,0,0.0,0.0,63,0.00,,,0.88,WUHU216HW,2013-02-08 11:28:00,
2013-02-08 06:33:00,49.3,37.3,29.70,North,0,0.0,0.0,63,0.00,,,0.88,WUHU216HW,2013-02-08 11:33:00,
2013-02-08 06:39:00,49.3,37.3,29.70,North,0,0.0,0.0,63,0.00,,,0.88,WUHU216HW,2013-02-08 11:39:00,
2013-02-08 06:44:00,49.1,37.1,29.70,North,0,0.0,0.0,63,0.00,,,0.88,WUHU216HW,2013-02-08 11:44:00,
2013-02-08 06:49:00,49.1,37.1,29.70,North,0,0.0,0.0,63,0.00,,,0.88,WUHU216HW,2013-02-08 11:49:00,
2013-02-08 06:54:00,49.1,37.1,29.71,North,0,0.0,0.0,63,0.00,,,0.88,WUHU216HW,2013-02-08 11:54:00,
2013-02-08 06:59:00,49.0,36.9,29.71,North,0,0.0,0.0,63,0.00,,,0.88,WUHU216HW,2013-02-08 11:59:00,
2013-02-08 07:04:00,49.0,36.9,29.72,North,0,0.0,0.0,63,0.00,,,0.88,WUHU216HW,2013-02-08 12:04:00,
2013-02-08 07:09:00,49.0,36.9,29.72,North,0,0.0,0.0,63,0.00,,,0.88,WUHU216HW,2013-02-08 12:09:00,
2013-02-08 07:14:00,49.0,36.9,29.72,North,0,0.0,0.0,63,0.00,,,0.88,WUHU216HW,2013-02-08 12:14:00,
2013-02-08 07:19:00,49.0,36.9,29.73,North,0,0.0,0.0,63,0.00,,,0.88,WUHU216HW,2013-02-08 12:19:00,
2013-02-08 07:24:00,49.0,36.9,29.73,North,0,0.0,0.0,63,0.00,,,0.88,WUHU216HW,2013-02-08 12:24:00,
2013-02-08 07:29:00,49.0,36.9,29.73,North,0,0.0,0.0,63,0.00,,,0.88,WUHU216HW,2013-02-08 12:29:00,
2013-02-08 07:34:00,49.0,36.9,29.73,North,0,0.0,0.0,63,0.00,,,0.88,WUHU216HW,2013-02-08 12:34:00,
2013-02-08 07:39:00,49.0,36.9,29.74,North,0,0.0,0.0,63,0.00,,,0.88,WUHU216HW,2013-02-08 12:39:00,
2013-02-08 07:44:00,49.1,37.1,29.75,North,0,0.0,0.0,63,0.00,,,0.88,WUHU216HW,2013-02-08 12:44:00,
2013-02-08 07:50:00,49.3,37.3,29.75,North,0,0.0,0.0,63,0.00,,,0.88,WUHU216HW,2013-02-08 12:50:00,
2013-02-08 08:00:00,49.1,37.1,29.76,North,0,0.0,0.0,63,0.00,,,0.88,WUHU216HW,2013-02-08 13:00:00,
2013-02-08 08:03:00,49.1,37.1,29.76,North,0,0.0,0.0,63,0.00,,,0.88,WUHU216HW,2013-02-08 13:03:00,
2013-02-08 08:05:00,49.1,37.1,29.76,North,0,0.0,0.0,63,0.00,,,0.88,WUHU216HW,2013-02-08 13:05:00,
2013-02-08 08:10:00,49.1,37.1,29.76,North,0,0.0,0.0,63,0.00,,,0.88,WUHU216HW,2013-02-08 13:10:00,
2013-02-08 08:19:00,49.7,37.5,29.79,North,0,0.0,0.0,63,0.00,,,0.88,WUHU216HW,2013-02-08 13:19:00,
2013-02-08 08:24:00,49.9,37.7,29.79,North,0,0.0,0.0,63,0.00,,,0.88,WUHU216HW,2013-02-08 13:24:00,
2013-02-08 08:30:00,50.0,37.9,29.79,North,0,0.0,0.0,63,0.00,,,0.88,WUHU216HW,2013-02-08 13:30:00,
2013-02-08 08:35:00,50.0,37.9,29.79,North,0,0.0,0.0,63,0.00,,,0.88,WUHU216HW,2013-02-08 13:35:00,
2013-02-08 08:40:00,50.0,37.9,29.80,North,0,0.0,0.0,63,0.00,,,0.88,WUHU216HW,2013-02-08 13:40:00,
2013-02-08 08:45:00,50.0,37.9,29.80,North,0,0.0,0.0,63,0.00,,,0.88,WUHU216HW,2013-02-08 13:45:00,
2013-02-08 08:50:00,50.2,38.1,29.80,North,0,0.0,0.0,63,0.00,,,0.88,WUHU216HW,2013-02-08 13:50:00,
2013-02-08 08:55:00,50.4,38.3,29.80,North,0,0.0,0.0,63,0.00,,,0.88,WUHU216HW,2013-02-08 13:55:00,
2013-02-08 09:00:00,50.4,38.3,29.80,North,0,0.0,0.0,63,0.00,,,0.88,WUHU216HW,2013-02-08 14:00:00,
2013-02-08 09:05:00,50.6,38.4,29.81,North,0,0.0,0.0,63,0.00,,,0.88,WUHU216HW,2013-02-08 14:05:00,
2013-02-08 09:10:00,50.6,38.4,29.81,North,0,0.0,0.0,63,0.00,,,0.88,WUHU216HW,2013-02-08 14:10:00,
2013-02-08 09:15:00,50.8,38.6,29.81,North,0,0.0,0.0,63,0.00,,,0.88,WUHU216HW,2013-02-08 14:15:00,
2013-02-08 09:20:00,50.9,38.7,29.81,North,0,0.0,0.0,63,0.00,,,0.88,WUHU216HW,2013-02-08 14:20:00,
2013-02-08 09:25:00,51.1,38.9,29.81,North,0,0.0,0.0,63,0.00,,,0.88,WUHU216HW,2013-02-08 14:25:00,
2013-02-08 09:30:00,51.3,38.7,29.82,North,0,0.0,0.0,62,0.00,,,0.88,WUHU216HW,2013-02-08 14:30:00,
2013-02-08 09:35:00,51.7,39.0,29.82,North,0,0.0,0.0,62,0.00,,,0.88,WUHU216HW,2013-02-08 14:35:00,
2013-02-08 09:40:00,51.8,39.2,29.82,North,0,0.0,0.0,62,0.00,,,0.88,WUHU216HW,2013-02-08 14:40:00,
2013-02-08 09:45:00,52.4,39.7,29.82,North,0,0.0,0.0,62,0.00,,,0.88,WUHU216HW,2013-02-08 14:45:00,
2013-02-08 09:50:00,52.7,39.6,29.82,North,0,0.0,0.0,61,0.00,,,0.88,WUHU216HW,2013-02-08 14:50:00,
2013-02-08 09:55:00,52.9,39.8,29.82,North,0,0.0,0.0,61,0.00,,,0.88,WUHU216HW,2013-02-08 14:55:00,
2013-02-08 10:00:00,53.5,40.0,29.83,North,0,0.0,0.0,60,0.00,,,0.88,WUHU216HW,2013-02-08 15:00:00,
2013-02-08 10:05:00,53.8,40.3,29.82,North,0,0.0,0.0,60,0.00,,,0.88,WUHU216HW,2013-02-08 15:05:00,
2013-02-08 10:11:00,54.0,40.5,29.82,North,0,0.0,0.0,60,0.00,,,0.88,WUHU216HW,2013-02-08 15:11:00,
2013-02-08 10:16:00,54.5,40.5,29.82,North,0,0.0,0.0,59,0.00,,,0.88,WUHU216HW,2013-02-08 15:16:00,
2013-02-08 10:21:00,55.3,41.1,29.82,North,0,0.0,0.0,59,0.00,,,0.88,WUHU216HW,2013-02-08 15:21:00,
2013-02-08 10:26:00,55.6,41.1,29.82,North,0,0.0,0.0,58,0.00,,,0.88,WUHU216HW,2013-02-08 15:26:00,
2013-02-08 10:31:00,55.8,41.2,29.83,North,0,0.0,0.0,58,0.00,,,0.88,WUHU216HW,2013-02-08 15:31:00,
2013-02-08 10:36:00,56.2,41.6,29.83,North,0,0.0,0.0,58,0.00,,,0.88,WUHU216HW,2013-02-08 15:36:00,
2013-02-08 10:41:00,56.5,41.4,29.83,North,0,0.0,0.0,57,0.00,,,0.88,WUHU216HW,2013-02-08 15:41:00,
2013-02-08 10:46:00,56.5,41.4,29.83,North,0,0.0,0.0,57,0.00,,,0.88,WUHU216HW,2013-02-08 15:46:00,
2013-02-08 10:51:00,57.1,42.5,29.83,North,0,0.0,0.0,58,0.00,,,0.88,WUHU216HW,2013-02-08 15:51:00,
2013-02-08 10:56:00,57.2,42.1,29.84,North,0,0.0,0.0,57,0.00,,,0.88,WUHU216HW,2013-02-08 15:56:00,
2013-02-08 11:01:00,57.4,42.3,29.83,North,0,0.0,0.0,57,0.00,,,0.88,WUHU216HW,2013-02-08 16:01:00,
2013-02-08 11:06:00,57.8,42.7,29.83,North,0,0.0,0.0,57,0.00,,,0.88,WUHU216HW,2013-02-08 16:06:00,
2013-02-08 11:11:00,58.0,43.3,29.84,North,0,0.0,0.0,58,0.00,,,0.88,WUHU216HW,2013-02-08 16:11:00,
2013-02-08 11:16:00,58.3,43.1,29.84,North,0,0.0,0.0,57,0.00,,,0.88,WUHU216HW,2013-02-08 16:16:00,
2013-02-08 11:21:00,58.7,43.5,29.84,North,0,0.0,0.0,57,0.00,,,0.88,WUHU216HW,2013-02-08 16:21:00,
2013-02-08 11:27:00,58.9,44.1,29.84,North,0,0.0,0.0,58,0.00,,,0.88,WUHU216HW,2013-02-08 16:27:00,
2013-02-08 11:32:00,58.7,43.9,29.83,North,0,0.0,0.0,58,0.00,,,0.88,WUHU216HW,2013-02-08 16:32:00,
2013-02-08 11:37:00,59.0,43.7,29.84,North,0,0.0,0.0,57,0.00,,,0.88,WUHU216HW,2013-02-08 16:37:00,
2013-02-08 11:42:00,59.2,43.9,29.83,North,0,0.0,0.0,57,0.00,,,0.88,WUHU216HW,2013-02-08 16:42:00,
2013-02-08 11:47:00,59.4,44.7,29.84,North,0,0.0,0.0,58,0.00,,,0.88,WUHU216HW,2013-02-08 16:47:00,
2013-02-08 11:52:00,59.4,44.1,29.84,North,0,0.0,0.0,57,0.00,,,0.88,WUHU216HW,2013-02-08 16:52:00,
2013-02-08 11:57:00,59.8,44.5,29.84,North,0,0.0,0.0,57,0.00,,,0.88,WUHU216HW,2013-02-08 16:57:00,
2013-02-08 12:02:00,59.8,44.9,29.83,North,0,0.0,0.0,58,0.00,,,0.88,WUHU216HW,2013-02-08 17:02:00,
2013-02-08 12:07:00,59.9,44.6,29.83,North,0,0.0,0.0,57,0.00,,,0.88,WUHU216HW,2013-02-08 17:07:00,
2013-02-08 12:12:00,59.8,44.5,29.83,North,0,0.0,0.0,57,0.00,,,0.88,WUHU216HW,2013-02-08 17:12:00,
2013-02-08 12:17:00,59.8,44.5,29.83,North,0,0.0,0.0,57,0.00,,,0.88,WUHU216HW,2013-02-08 17:17:00,
2013-02-08 12:22:00,60.1,44.8,29.83,North,0,0.0,0.0,57,0.00,,,0.88,WUHU216HW,2013-02-08 17:22:00,
2013-02-08 12:27:00,60.5,45.2,29.83,North,0,0.0,0.0,57,0.00,,,0.88,WUHU216HW,2013-02-08 17:27:00,
2013-02-08 12:32:00,60.3,45.0,29.83,North,0,0.0,0.0,57,0.00,,,0.88,WUHU216HW,2013-02-08 17:32:00,
2013-02-08 12:37:00,60.3,45.0,29.83,North,0,0.0,0.0,57,0.00,,,0.88,WUHU216HW,2013-02-08 17:37:00,
2013-02-08 12:42:00,60.7,44.8,29.83,North,0,0.0,0.0,56,0.00,,,0.88,WUHU216HW,2013-02-08 17:42:00,
2013-02-08 12:47:00,60.5,45.2,29.83,North,0,0.0,0.0,57,0.00,,,0.88,WUHU216HW,2013-02-08 17:47:00,
2013-02-08 12:52:00,60.5,45.2,29.83,North,0,0.0,0.0,57,0.00,,,0.88,WUHU216HW,2013-02-08 17:52:00,
2013-02-08 12:57:00,60.7,45.4,29.83,North,0,0.0,0.0,57,0.00,,,0.88,WUHU216HW,2013-02-08 17:57:00,
2013-02-08 13:02:00,60.5,45.2,29.83,North,0,0.0,0.0,57,0.00,,,0.88,WUHU216HW,2013-02-08 18:02:00,
2013-02-08 13:08:00,60.7,45.4,29.84,North,0,0.0,0.0,57,0.00,,,0.88,WUHU216HW,2013-02-08 18:08:00,
2013-02-08 13:13:00,60.8,45.6,29.84,North,0,0.0,0.0,57,0.00,,,0.88,WUHU216HW,2013-02-08 18:13:00,
2013-02-08 13:18:00,60.5,45.2,29.84,North,0,0.0,0.0,57,0.00,,,0.88,WUHU216HW,2013-02-08 18:18:00,
2013-02-08 13:23:00,60.7,45.8,29.83,North,0,0.0,0.0,58,0.00,,,0.88,WUHU216HW,2013-02-08 18:23:00,
2013-02-08 13:28:00,60.8,45.6,29.84,North,0,0.0,0.0,57,0.00,,,0.88,WUHU216HW,2013-02-08 18:28:00,
2013-02-08 13:33:00,60.8,45.6,29.84,North,0,0.0,0.0,57,0.00,,,0.88,WUHU216HW,2013-02-08 18:33:00,
2013-02-08 13:38:00,61.0,45.7,29.83,North,0,0.0,0.0,57,0.00,,,0.88,WUHU216HW,2013-02-08 18:38:00,
2013-02-08 13:43:00,60.8,45.6,29.83,North,0,0.0,0.0,57,0.00,,,0.88,WUHU216HW,2013-02-08 18:43:00,
2013-02-08 13:48:00,61.0,46.2,29.84,North,0,0.0,0.0,58,0.00,,,0.88,WUHU216HW,2013-02-08 18:48:00,
2013-02-08 13:53:00,61.0,45.7,29.84,North,0,0.0,0.0,57,0.00,,,0.88,WUHU216HW,2013-02-08 18:53:00,
2013-02-08 13:59:00,61.0,45.7,29.84,North,0,0.0,0.0,57,0.00,,,0.88,WUHU216HW,2013-02-08 18:59:00,
2013-02-08 14:04:00,60.7,45.8,29.84,North,0,0.0,0.0,58,0.00,,,0.88,WUHU216HW,2013-02-08 19:04:00,
2013-02-08 14:09:00,61.0,45.7,29.84,North,0,0.0,0.0,57,0.00,,,0.88,WUHU216HW,2013-02-08 19:09:00,
2013-02-08 14:14:00,61.6,46.2,29.84,North,0,0.0,0.0,57,0.00,,,0.88,WUHU216HW,2013-02-08 19:14:00,
2013-02-08 14:19:00,61.6,46.2,29.84,North,0,0.0,0.0,57,0.00,,,0.88,WUHU216HW,2013-02-08 19:19:00,
2013-02-08 14:24:00,61.9,46.5,29.84,North,0,0.0,0.0,57,0.00,,,0.88,WUHU216HW,2013-02-08 19:24:00,
2013-02-08 14:29:00,61.6,45.7,29.84,North,0,0.0,0.0,56,0.00,,,0.88,WUHU216HW,2013-02-08 19:29:00,
2013-02-08 14:34:00,61.7,46.4,29.84,North,0,0.0,0.0,57,0.00,,,0.88,WUHU216HW,2013-02-08 19:34:00,
2013-02-08 14:39:00,61.9,46.5,29.84,North,0,0.0,0.0,57,0.00,,,0.88,WUHU216HW,2013-02-08 19:39:00,
2013-02-08 14:44:00,62.1,46.2,29.84,North,0,0.0,0.0,56,0.00,,,0.88,WUHU216HW,2013-02-08 19:44:00,
2013-02-08 14:49:00,62.3,46.8,29.84,North,0,0.0,0.0,57,0.00,,,0.88,WUHU216HW,2013-02-08 19:49:00,
2013-02-08 14:54:00,62.3,46.4,29.84,North,0,0.0,0.0,56,0.00,,,0.88,WUHU216HW,2013-02-08 19:54:00,
2013-02-08 14:59:00,62.3,46.8,29.84,North,0,0.0,0.0,57,0.00,,,0.88,WUHU216HW,2013-02-08 19:59:00,
2013-02-08 15:04:00,62.3,46.4,29.84,North,0,0.0,0.0,56,0.00,,,0.88,WUHU216HW,2013-02-08 20:04:00,
2013-02-08 15:10:00,62.5,47.0,29.84,North,0,0.0,0.0,57,0.00,,,0.88,WUHU216HW,2013-02-08 20:10:00,
2013-02-08 15:15:00,62.5,47.0,29.84,North,0,0.0,0.0,57,0.00,,,0.88,WUHU216HW,2013-02-08 20:15:00,
2013-02-08 15:20:00,62.6,46.6,29.84,North,0,0.0,0.0,56,0.00,,,0.88,WUHU216HW,2013-02-08 20:20:00,
2013-02-08 15:25:00,62.6,46.6,29.85,North,0,0.0,0.0,56,0.00,,,0.88,WUHU216HW,2013-02-08 20:25:00,
2013-02-08 15:30:00,62.8,46.8,29.85,North,0,0.0,0.0,56,0.00,,,0.88,WUHU216HW,2013-02-08 20:30:00,
2013-02-08 15:35:00,62.5,47.0,29.85,North,0,0.0,0.0,57,0.00,,,0.88,WUHU216HW,2013-02-08 20:35:00,
2013-02-08 15:40:00,62.6,46.6,29.85,North,0,0.0,0.0,56,0.00,,,0.88,WUHU216HW,2013-02-08 20:40:00,
2013-02-08 15:45:00,62.3,46.4,29.84,North,0,0.0,0.0,56,0.00,,,0.88,WUHU216HW,2013-02-08 20:45:00,
2013-02-08 15:50:00,62.5,46.5,29.84,North,0,0.0,0.0,56,0.00,,,0.88,WUHU216HW,2013-02-08 20:50:00,
2013-02-08 15:55:00,62.3,46.4,29.85,North,0,0.0,0.0,56,0.00,,,0.88,WUHU216HW,2013-02-08 20:55:00,
2013-02-08 16:00:00,62.3,46.4,29.85,North,0,0.0,0.0,56,0.00,,,0.88,WUHU216HW,2013-02-08 21:00:00,
2013-02-08 16:05:00,62.3,46.4,29.84,North,0,0.0,0.0,56,0.00,,,0.88,WUHU216HW,2013-02-08 21:05:00,
2013-02-08 16:10:00,62.5,46.5,29.85,North,0,0.0,0.0,56,0.00,,,0.88,WUHU216HW,2013-02-08 21:10:00,
2013-02-08 16:16:00,62.3,46.4,29.85,North,0,0.0,0.0,56,0.00,,,0.88,WUHU216HW,2013-02-08 21:16:00,
2013-02-08 16:21:00,62.3,46.4,29.85,North,0,0.0,0.0,56,0.00,,,0.88,WUHU216HW,2013-02-08 21:21:00,
2013-02-08 16:26:00,62.3,46.4,29.85,North,0,0.0,0.0,56,0.00,,,0.88,WUHU216HW,2013-02-08 21:26:00,
2013-02-08 16:31:00,61.9,46.0,29.85,North,0,0.0,0.0,56,0.00,,,0.88,WUHU216HW,2013-02-08 21:31:00,
2013-02-08 16:36:00,61.7,46.4,29.85,North,0,0.0,0.0,57,0.00,,,0.88,WUHU216HW,2013-02-08 21:36:00,
2013-02-08 16:41:00,61.9,46.5,29.85,North,0,0.0,0.0,57,0.00,,,0.88,WUHU216HW,2013-02-08 21:41:00,
2013-02-08 16:46:00,61.7,46.4,29.85,North,0,0.0,0.0,57,0.00,,,0.88,WUHU216HW,2013-02-08 21:46:00,
2013-02-08 16:51:00,61.7,46.4,29.85,North,0,0.0,0.0,57,0.00,,,0.88,WUHU216HW,2013-02-08 21:51:00,
2013-02-08 16:56:00,61.7,46.4,29.85,North,0,0.0,0.0,57,0.00,,,0.88,WUHU216HW,2013-02-08 21:56:00,
2013-02-08 17:01:00,61.7,46.4,29.85,North,0,0.0,0.0,57,0.00,,,0.88,WUHU216HW,2013-02-08 22:01:00,
2013-02-08 17:06:00,61.6,46.2,29.86,North,0,0.0,0.0,57,0.00,,,0.88,WUHU216HW,2013-02-08 22:06:00,
2013-02-08 17:11:00,61.4,46.0,29.86,North,0,0.0,0.0,57,0.00,,,0.88,WUHU216HW,2013-02-08 22:11:00,
2013-02-08 17:16:00,61.0,45.7,29.87,North,0,0.0,0.0,57,0.00,,,0.88,WUHU216HW,2013-02-08 22:16:00,
2013-02-08 17:21:00,60.7,45.4,29.87,North,0,0.0,0.0,57,0.00,,,0.88,WUHU216HW,2013-02-08 22:21:00,
2013-02-08 17:26:00,60.5,45.2,29.87,North,0,0.0,0.0,57,0.00,,,0.88,WUHU216HW,2013-02-08 22:26:00,
2013-02-08 17:31:00,60.1,44.8,29.88,North,0,0.0,0.0,57,0.00,,,0.88,WUHU216HW,2013-02-08 22:31:00,
2013-02-08 17:37:00,59.8,44.5,29.87,North,0,0.0,0.0,57,0.00,,,0.88,WUHU216HW,2013-02-08 22:37:00,
2013-02-08 17:42:00,59.6,44.3,29.88,North,0,0.0,0.0,57,0.00,,,0.88,WUHU216HW,2013-02-08 22:42:00,
2013-02-08 17:47:00,59.4,44.1,29.88,North,0,0.0,0.0,57,0.00,,,0.88,WUHU216HW,2013-02-08 22:47:00,
2013-02-08 17:52:00,59.0,43.7,29.88,North,0,0.0,0.0,57,0.00,,,0.88,WUHU216HW,2013-02-08 22:52:00,
2013-02-08 17:57:00,58.7,43.5,29.89,North,0,0.0,0.0,57,0.00,,,0.88,WUHU216HW,2013-02-08 22:57:00,
2013-02-08 18:02:00,58.3,43.1,29.89,North,0,0.0,0.0,57,0.00,,,0.88,WUHU216HW,2013-02-08 23:02:00,
2013-02-08 18:07:00,58.0,42.9,29.90,North,0,0.0,0.0,57,0.00,,,0.88,WUHU216HW,2013-02-08 23:07:00,
2013-02-08 18:12:00,58.0,42.9,29.90,North,0,0.0,0.0,57,0.00,,,0.88,WUHU216HW,2013-02-08 23:12:00,
2013-02-08 18:17:00,57.6,42.0,29.90,North,0,0.0,0.0,56,0.00,,,0.88,WUHU216HW,2013-02-08 23:17:00,
2013-02-08 18:22:00,57.6,42.0,29.90,North,0,0.0,0.0,56,0.00,,,0.88,WUHU216HW,2013-02-08 23:22:00,
2013-02-08 18:27:00,57.2,41.7,29.91,North,0,0.0,0.0,56,0.00,,,0.88,WUHU216HW,2013-02-08 23:27:00,
2013-02-08 18:32:00,57.1,41.5,29.91,North,0,0.0,0.0,56,0.00,,,0.88,WUHU216HW,2013-02-08 23:32:00,
2013-02-08 18:37:00,56.9,41.3,29.91,North,0,0.0,0.0,56,0.00,,,0.88,WUHU216HW,2013-02-08 23:37:00,
2013-02-08 18:42:00,56.7,41.1,29.91,North,0,0.0,0.0,56,0.00,,,0.88,WUHU216HW,2013-02-08 23:42:00,
2013-02-08 18:47:00,56.5,41.0,29.91,North,0,0.0,0.0,56,0.00,,,0.88,WUHU216HW,2013-02-08 23:47:00,
2013-02-08 18:52:00,56.5,41.0,29.91,North,0,0.0,0.0,56,0.00,,,0.88,WUHU216HW,2013-02-08 23:52:00,
2013-02-08 18:57:00,56.5,41.0,29.91,North,0,0.0,0.0,56,0.00,,,0.88,WUHU216HW,2013-02-08 23:57:00,
2013-02-08 19:03:00,56.5,41.0,29.92,North,0,0.0,0.0,56,0.00,,,0.88,WUHU216HW,2013-02-09 00:03:00,
2013-02-08 19:08:00,56.3,40.8,29.92,North,0,0.0,0.0,56,0.00,,,0.88,WUHU216HW,2013-02-09 00:08:00,
2013-02-08 19:13:00,56.3,40.8,29.92,North,0,0.0,0.0,56,0.00,,,0.88,WUHU216HW,2013-02-09 00:13:00,
2013-02-08 19:18:00,56.3,40.8,29.92,North,0,0.0,0.0,56,0.00,,,0.88,WUHU216HW,2013-02-09 00:18:00,
2013-02-08 19:23:00,56.3,40.8,29.92,North,0,0.0,0.0,56,0.00,,,0.88,WUHU216HW,2013-02-09 00:23:00,
2013-02-08 19:28:00,56.2,40.6,29.93,North,0,0.0,0.0,56,0.00,,,0.88,WUHU216HW,2013-02-09 00:28:00,
2013-02-08 19:33:00,56.2,40.6,29.93,North,0,0.0,0.0,56,0.00,,,0.88,WUHU216HW,2013-02-09 00:33:00,
2013-02-08 19:38:00,56.2,40.6,29.93,North,0,0.0,0.0,56,0.00,,,0.88,WUHU216HW,2013-02-09 00:38:00,
2013-02-08 19:43:00,56.2,40.6,29.93,North,0,0.0,0.0,56,0.00,,,0.88,WUHU216HW,2013-02-09 00:43:00,
2013-02-08 19:48:00,56.0,40.4,29.93,North,0,0.0,0.0,56,0.00,,,0.88,WUHU216HW,2013-02-09 00:48:00,
2013-02-08 19:53:00,56.0,40.4,29.93,North,0,0.0,0.0,56,0.00,,,0.88,WUHU216HW,2013-02-09 00:53:00,
2013-02-08 19:58:00,56.0,40.4,29.94,North,0,0.0,0.0,56,0.00,,,0.88,WUHU216HW,2013-02-09 00:58:00,
2013-02-08 20:03:00,55.8,40.2,29.94,North,0,0.0,0.0,56,0.00,,,0.88,WUHU216HW,2013-02-09 01:03:00,
2013-02-08 20:08:00,55.8,40.2,29.94,North,0,0.0,0.0,56,0.00,,,0.88,WUHU216HW,2013-02-09 01:08:00,
2013-02-08 20:13:00,55.8,40.2,29.94,North,0,0.0,0.0,56,0.00,,,0.88,WUHU216HW,2013-02-09 01:13:00,
2013-02-08 20:19:00,55.6,40.1,29.94,North,0,0.0,0.0,56,0.00,,,0.88,WUHU216HW,2013-02-09 01:19:00,
2013-02-08 20:24:00,55.6,40.1,29.94,North,0,0.0,0.0,56,0.00,,,0.88,WUHU216HW,2013-02-09 01:24:00,
2013-02-08 20:29:00,55.6,40.1,29.94,North,0,0.0,0.0,56,0.00,,,0.88,WUHU216HW,2013-02-09 01:29:00,
2013-02-08 20:34:00,55.8,40.2,29.94,North,0,0.0,0.0,56,0.00,,,0.88,WUHU216HW,2013-02-09 01:34:00,
2013-02-08 20:39:00,55.6,40.1,29.95,North,0,0.0,0.0,56,0.00,,,0.88,WUHU216HW,2013-02-09 01:39:00,
2013-02-08 20:44:00,55.6,40.1,29.95,North,0,0.0,0.0,56,0.00,,,0.88,WUHU216HW,2013-02-09 01:44:00,
2013-02-08 20:49:00,55.6,40.1,29.95,North,0,0.0,0.0,56,0.00,,,0.88,WUHU216HW,2013-02-09 01:49:00,
2013-02-08 20:54:00,55.6,40.1,29.95,North,0,0.0,0.0,56,0.00,,,0.88,WUHU216HW,2013-02-09 01:54:00,
2013-02-08 20:59:00,55.4,39.9,29.96,North,0,0.0,0.0,56,0.00,,,0.88,WUHU216HW,2013-02-09 01:59:00,
2013-02-08 21:04:00,55.1,40.1,29.96,North,0,0.0,0.0,57,0.00,,,0.88,WUHU216HW,2013-02-09 02:04:00,
2013-02-08 21:09:00,55.1,40.1,29.96,North,0,0.0,0.0,57,0.00,,,0.88,WUHU216HW,2013-02-09 02:09:00,
2013-02-08 21:14:00,55.1,40.1,29.96,North,0,0.0,0.0,57,0.00,,,0.88,WUHU216HW,2013-02-09 02:14:00,
2013-02-08 21:19:00,55.1,40.1,29.96,North,0,0.0,0.0,57,0.00,,,0.88,WUHU216HW,2013-02-09 02:19:00,
2013-02-08 21:24:00,55.1,40.1,29.96,North,0,0.0,0.0,57,0.00,,,0.88,WUHU216HW,2013-02-09 02:24:00,
2013-02-08 21:30:00,54.9,39.9,29.96,North,0,0.0,0.0,57,0.00,,,0.88,WUHU216HW,2013-02-09 02:30:00,
2013-02-08 21:35:00,54.7,39.7,29.96,North,0,0.0,0.0,57,0.00,,,0.88,WUHU216HW,2013-02-09 02:35:00,
2013-02-08 21:40:00,54.5,39.5,29.97,North,0,0.0,0.0,57,0.00,,,0.88,WUHU216HW,2013-02-09 02:40:00,
2013-02-08 21:45:00,54.4,39.4,29.97,North,0,0.0,0.0,57,0.00,,,0.88,WUHU216HW,2013-02-09 02:45:00,
2013-02-08 21:50:00,54.4,39.4,29.97,North,0,0.0,0.0,57,0.00,,,0.88,WUHU216HW,2013-02-09 02:50:00,
2013-02-08 21:55:00,54.4,39.9,29.97,North,0,0.0,0.0,58,0.00,,,0.88,WUHU216HW,2013-02-09 02:55:00,
2013-02-08 22:00:00,54.4,39.9,29.97,North,0,0.0,0.0,58,0.00,,,0.88,WUHU216HW,2013-02-09 03:00:00,
2013-02-08 22:05:00,54.4,39.9,29.98,North,0,0.0,0.0,58,0.00,,,0.88,WUHU216HW,2013-02-09 03:05:00,
2013-02-08 22:10:00,54.2,39.7,29.98,North,0,0.0,0.0,58,0.00,,,0.88,WUHU216HW,2013-02-09 03:10:00,
2013-02-08 22:15:00,54.0,39.5,29.98,North,0,0.0,0.0,58,0.00,,,0.88,WUHU216HW,2013-02-09 03:15:00,
2013-02-08 22:20:00,54.0,39.5,29.98,North,0,0.0,0.0,58,0.00,,,0.88,WUHU216HW,2013-02-09 03:20:00,
2013-02-08 22:25:00,53.8,39.3,29.98,North,0,0.0,0.0,58,0.00,,,0.88,WUHU216HW,2013-02-09 03:25:00,
2013-02-08 22:30:00,53.8,39.3,29.98,North,0,0.0,0.0,58,0.00,,,0.88,WUHU216HW,2013-02-09 03:30:00,
2013-02-08 22:35:00,53.6,39.3,29.99,North,0,0.0,0.0,58,0.00,,,0.88,WUHU216HW,2013-02-09 03:35:00,
2013-02-08 22:41:00,53.6,39.3,29.99,North,0,0.0,0.0,58,0.00,,,0.88,WUHU216HW,2013-02-09 03:41:00,
2013-02-08 22:46:00,53.5,39.5,29.99,North,0,0.0,0.0,59,0.00,,,0.88,WUHU216HW,2013-02-09 03:46:00,
2013-02-08 22:51:00,53.3,39.3,29.99,North,0,0.0,0.0,59,0.00,,,0.88,WUHU216HW,2013-02-09 03:51:00,
2013-02-08 22:56:00,53.3,39.3,29.99,North,0,0.0,0.0,59,0.00,,,0.88,WUHU216HW,2013-02-09 03:56:00,
2013-02-08 23:01:00,53.3,39.3,29.99,North,0,0.0,0.0,59,0.00,,,0.88,WUHU216HW,2013-02-09 04:01:00,
2013-02-08 23:06:00,53.5,39.5,30.00,North,0,0.0,0.0,59,0.00,,,0.88,WUHU216HW,2013-02-09 04:06:00,
2013-02-08 23:11:00,53.6,39.7,30.00,North,0,0.0,0.0,59,0.00,,,0.88,WUHU216HW,2013-02-09 04:11:00,
2013-02-08 23:16:00,53.5,39.5,30.00,North,0,0.0,0.0,59,0.00,,,0.88,WUHU216HW,2013-02-09 04:16:00,
2013-02-08 23:21:00,53.5,39.1,30.01,North,0,0.0,0.0,58,0.00,,,0.88,WUHU216HW,2013-02-09 04:21:00,
2013-02-08 23:26:00,53.3,38.9,30.01,North,0,0.0,0.0,58,0.00,,,0.88,WUHU216HW,2013-02-09 04:26:00,
2013-02-08 23:31:00,53.1,38.7,30.01,North,0,0.0,0.0,58,0.00,,,0.88,WUHU216HW,2013-02-09 04:31:00,
2013-02-08 23:36:00,52.9,38.5,30.01,North,0,0.0,0.0,58,0.00,,,0.88,WUHU216HW,2013-02-09 04:36:00,
2013-02-08 23:42:00,52.7,38.4,30.02,North,0,0.0,0.0,58,0.00,,,0.88,WUHU216HW,2013-02-09 04:42:00,
2013-02-08 23:47:00,52.6,38.2,30.02,North,0,0.0,0.0,58,0.00,,,0.88,WUHU216HW,2013-02-09 04:47:00,
2013-02-08 23:52:00,52.2,37.8,30.02,North,0,0.0,0.0,58,0.00,,,0.88,WUHU216HW,2013-02-09 04:52:00,
2013-02-08 23:57:00,52.0,37.6,30.02,North,0,0.0,0.0,58,0.00,,,0.88,WUHU216HW,2013-02-09 04:57:00,